TimeEDT,TemperatureF,Dew PointF,Humidity,Sea Level PressureIn,VisibilityMPH,Wind Direction,Wind SpeedMPH,Gust SpeedMPH,PrecipitationIn,Events,Conditions,WindDirDegrees,DateUTC
12:53 AM,63.0,61.0,93,29.97,10.0,Calm,Calm,-,N/A,,Clear,0,2013-10-17 04:53:00
1:45 AM,62.6,60.8,94,29.97,2.0,Calm,Calm,-,N/A,,Clear,0,2013-10-17 05:45:00
1:53 AM,62.1,60.1,93,29.97,9.0,Calm,Calm,-,N/A,,Clear,0,2013-10-17 05:53:00
2:53 AM,61.0,60.1,97,29.96,10.0,Calm,Calm,-,N/A,,Clear,0,2013-10-17 06:53:00
3:49 AM,59.0,57.2,94,29.94,1.8,Calm,Calm,-,N/A,,Clear,0,2013-10-17 07:49:00
3:51 AM,59.0,57.2,94,29.94,1.0,Calm,Calm,-,N/A,,Mist,0,2013-10-17 07:51:00
3:53 AM,60.1,57.9,93,29.94,1.0,Calm,Calm,-,N/A,,Mist,0,2013-10-17 07:53:00
4:11 AM,60.8,59.0,94,29.94,0.8,Calm,Calm,-,N/A,,Mist,0,2013-10-17 08:11:00
4:18 AM,60.8,59.0,94,29.94,1.2,Calm,Calm,-,N/A,,Partly Cloudy,0,2013-10-17 08:18:00
4:21 AM,60.8,59.0,94,29.94,2.0,Calm,Calm,-,N/A,,Partly Cloudy,0,2013-10-17 08:21:00
4:30 AM,59.0,57.2,94,29.94,4.0,Calm,Calm,-,N/A,,Clear,0,2013-10-17 08:30:00
4:33 AM,59.0,57.2,94,29.94,1.8,Calm,Calm,-,N/A,,Partly Cloudy,0,2013-10-17 08:33:00
4:41 AM,60.8,57.2,88,29.94,1.2,Calm,Calm,-,N/A,,Partly Cloudy,0,2013-10-17 08:41:00
4:45 AM,59.0,57.2,94,29.94,2.0,Calm,Calm,-,N/A,,Partly Cloudy,0,2013-10-17 08:45:00
4:53 AM,60.1,57.9,93,29.95,2.0,Calm,Calm,-,N/A,,Partly Cloudy,0,2013-10-17 08:53:00
5:05 AM,60.8,57.2,88,29.95,1.8,Calm,Calm,-,N/A,,Clear,0,2013-10-17 09:05:00
5:08 AM,59.0,57.2,94,29.95,4.0,Calm,Calm,-,N/A,,Clear,0,2013-10-17 09:08:00
5:53 AM,59.0,57.0,93,29.95,5.0,Calm,Calm,-,N/A,,Clear,0,2013-10-17 09:53:00
6:53 AM,61.0,59.0,93,29.96,10.0,Calm,Calm,-,N/A,,Clear,0,2013-10-17 10:53:00
7:53 AM,63.0,60.1,90,29.97,10.0,Calm,Calm,-,N/A,,Clear,0,2013-10-17 11:53:00
8:53 AM,64.9,62.1,90,29.99,10.0,Calm,Calm,-,N/A,,Clear,0,2013-10-17 12:53:00
9:53 AM,70.0,62.1,76,29.99,10.0,West,3.5,-,N/A,,Clear,280,2013-10-17 13:53:00
10:53 AM,73.9,62.1,66,29.99,10.0,West,6.9,-,N/A,,Clear,280,2013-10-17 14:53:00
11:53 AM,77.0,62.1,60,29.97,10.0,West,5.8,-,N/A,,Clear,280,2013-10-17 15:53:00
12:53 PM,79.0,62.1,56,29.95,10.0,WSW,4.6,-,N/A,,Clear,240,2013-10-17 16:53:00
1:53 PM,79.0,62.1,56,29.93,10.0,SW,6.9,-,N/A,,Mostly Cloudy,220,2013-10-17 17:53:00
2:53 PM,78.1,63.0,60,29.90,10.0,SE,5.8,-,N/A,,Scattered Clouds,130,2013-10-17 18:53:00
3:53 PM,79.0,63.0,58,29.90,10.0,SSW,5.8,-,N/A,,Mostly Cloudy,210,2013-10-17 19:53:00
4:53 PM,79.0,62.1,56,29.89,10.0,SSW,9.2,-,N/A,,Clear,210,2013-10-17 20:53:00
5:53 PM,75.0,62.1,64,29.90,10.0,SW,8.1,-,N/A,,Clear,220,2013-10-17 21:53:00
6:53 PM,72.0,62.1,71,29.90,10.0,SSW,6.9,-,N/A,,Clear,210,2013-10-17 22:53:00
7:53 PM,70.0,64.9,84,29.91,10.0,SSW,5.8,-,N/A,,Clear,200,2013-10-17 23:53:00
8:53 PM,70.0,66.0,87,29.92,10.0,SSW,6.9,-,N/A,,Clear,200,2013-10-18 00:53:00
9:53 PM,70.0,66.0,87,29.92,10.0,SSW,5.8,-,N/A,,Clear,200,2013-10-18 01:53:00
10:53 PM,70.0,66.9,90,29.92,10.0,SSW,6.9,-,N/A,,Clear,200,2013-10-18 02:53:00
11:53 PM,71.1,66.9,87,29.92,10.0,SSW,5.8,-,N/A,,Mostly Cloudy,210,2013-10-18 03:53:00